Погода в Черниговском

Россия / Краснодарский край     44°15′04″N   39°45′56″E
темп.,
°C
ветер,
м/с
пор.,
м/с
влажн.,
%
обл.,
%
осадки,
мм/ч
давл.,
гПа
погр.,
м
20 апреля, вт
вт2000:00+11юв1195100 0.8 101246
03:00+11ссв0199100 1.1 1010139
06:00+12ююв1191100 0.0 100436
09:00+14ю0386100 0.1 1006424
12:00+18ссз156712 0.0 1006818
15:00+17з576886 0.1 1008991
18:00+12юз4873100 0.2 1011554
21:00+8ююз497128 0.6 1014341
21 апреля, ср
ср2100:00+7ю598358 0.8 1015490
03:00+7ююз4889100 1.7 1016265
06:00+7ююз1389100 0.3 101775
09:00+11ссз217499 0.3 1018623
12:00+14ссз2354100 0.1 10181406
15:00+14сз235489 0.1 10181283
18:00+12ссз136849 0.1 1019150
21:00+7ююв218734 0.1 102214
22 апреля, чт
чт2200:00+7ююв1187100 0.0 102112
03:00+6вюв1188100 0.0 102210
06:00+6вюв119169 0.0 102211
09:00+12с227012 0.0 1021635
12:00+14ссв3265100 0.3 10201128
15:00+13ссв2280100 1.8 1020686
18:00+11с1293100 1.9 1021116
21:00+8ю1196100 2.0 102211
23 апреля, пт
пт2300:00+7ю11964 0.3 102214
03:00+6ю22967 0.7 102321
06:00+6ю22950 0.1 102434
09:00+12сз127414 0.1 1023826
12:00+15ссз34534 0.8 10211574
15:00+16ссз324668 1.0 10201839
18:00+12всв2472100 0.1 1020344
21:00+9ю2185100 0.1 102120
24 апреля, сб
сб2400:00+8ююз2283100 0.0 102021
03:00+8юз1178100 0.0 102016
06:00+7ююв227576 0.0 102133
09:00+14зсз16455 0.0 10191115
12:00+17зюз510335 0.0 10191994
15:00+17зюз47365 0.0 10181850
18:00+14з235692 0.0 1019162
21:00+8вюв1176100 0.0 102112